Weather reports worldwide

Advertisment
Bournemouth Airport, United Kingdom (3862): temperature & dewpoint: 19.01.2017 01:00:00 - 25.01.2017 01:00:00 (GMT)Bournemouth Airport, United Kingdom (3862): temperature -20cm & temperature -100cm: 19.01.2017 01:00:00 - 25.01.2017 01:00:00 (GMT)Bournemouth Airport, United Kingdom (3862): wind speed: 19.01.2017 01:00:00 - 25.01.2017 01:00:00 (GMT)Bournemouth Airport, United Kingdom (3862): wind direction: 19.01.2017 01:00:00 - 25.01.2017 01:00:00 (GMT)Bournemouth Airport, United Kingdom (3862): reduced air pressure: 19.01.2017 01:00:00 - 25.01.2017 01:00:00 (GMT)Bournemouth Airport, United Kingdom (3862): visibility: 19.01.2017 01:00:00 - 25.01.2017 01:00:00 (GMT)Bournemouth Airport, United Kingdom (3862): sunshine duration: 19.01.2017 01:00:00 - 25.01.2017 01:00:00 (GMT)Bournemouth Airport, United Kingdom (3862): precipitation: 19.01.2017 01:00:00 - 25.01.2017 01:00:00 (GMT)
Date & Time tt [°C] td [°C] tt -20cm [°C] tt -100cm [°C] ff [km/h] ff [kn] dd ppp [hPa] vv [km] sd [min] rr [mm]
25.01.2017 01:00:00 -1,3 -1,3 - - 0 0 N 1028,4 0,1 0 -
25.01.2017 00:00:00 -1,0 -1,0 - - 0 0 N 1028,6 0,1 - 0,0
24.01.2017 23:00:00 -1,0 -1,0 - - 0 0 N 1028,9 0,1 0 0,0
24.01.2017 22:00:00 -0,8 -0,8 - - 0 0 N 1028,9 0,1 0 0,0
24.01.2017 21:00:00 -0,8 -0,8 - - 0 0 N 1028,9 0,1 0 0,0
24.01.2017 20:00:00 -0,7 -0,7 - - 0 0 N 1028,9 0,1 0 0,0
24.01.2017 19:00:00 -0,4 -0,5 - - 4 2 N 1028,8 - 0 0,0
24.01.2017 18:00:00 0,9 0,8 - - 4 2 N 1028,6 0,1 0 0,0
24.01.2017 17:00:00 1,7 1,6 - - 2 1 NNW 1028,3 0,1 0 0,0
24.01.2017 16:00:00 2,3 2,3 - - 2 1 SSE 1028,3 0,2 0 0,0
24.01.2017 15:00:00 2,1 2,1 - - 2 1 NNW 1028,4 0,1 0 0,0
24.01.2017 14:00:00 1,6 1,6 - - 4 2 - 1028,8 0,2 0 0,0
24.01.2017 13:00:00 1,1 1,1 - - 4 2 W 1029,0 1,8 0 0,0
24.01.2017 12:00:00 -0,1 -0,2 - - 0 0 N 1029,5 0,3 0 0,2
24.01.2017 11:00:00 -1,2 -1,2 - - 0 0 N 1029,8 0,5 0 0,0
24.01.2017 10:00:00 -2,2 -2,3 - - 0 0 N 1029,4 0,3 0 0,0
24.01.2017 09:00:00 -2,7 -2,8 3,2 5,7 0 0 N 1028,8 0,2 0 0,0
24.01.2017 08:00:00 -2,6 -2,7 - - 0 0 N 1028,5 0,2 0 0,0
24.01.2017 07:00:00 -2,4 -2,5 - - 0 0 N 1028,1 0,2 0 0,0
24.01.2017 06:00:00 -2,0 -2,1 - - 0 0 N 1027,9 0,2 0 0,0
24.01.2017 05:00:00 -1,9 -2,0 - - 0 0 N 1027,8 0,1 0 0,0
24.01.2017 04:00:00 -2,0 -2,0 - - 0 0 N 1028,0 0,1 0 0,0
24.01.2017 03:00:00 -1,5 -1,5 - - 0 0 N 1028,2 0,1 0 0,0
24.01.2017 02:00:00 -1,4 -1,5 - - 0 0 N 1028,4 0,2 0 0,0
24.01.2017 01:00:00 -1,1 -1,1 - - 0 0 N 1028,2 0,2 0 0,0
24.01.2017 00:00:00 -1,0 -1,0 - - 2 1 W 1028,5 0,1 - 0,0
23.01.2017 23:00:00 -0,6 -0,6 - - 2 1 W 1028,7 0,1 0 0,0
23.01.2017 22:00:00 -0,2 -0,2 - - 2 1 W 1028,8 0,1 0 0,0
23.01.2017 21:00:00 0,0 0,0 - - 2 1 W 1028,6 0,1 0 0,0
23.01.2017 20:00:00 -0,1 -0,1 - - 2 1 SSE 1028,4 0,1 0 0,0
23.01.2017 19:00:00 0,0 0,0 - - 4 2 SE 1028,4 0,2 0 0,0
23.01.2017 18:00:00 0,3 0,3 - - 4 2 ENE 1028,5 0,1 0 0,0
23.01.2017 17:00:00 1,3 1,2 - - 2 1 - 1028,1 0,1 0 0,0
23.01.2017 16:00:00 1,3 1,3 - - 5 3 - 1027,8 0,1 0 0,0
23.01.2017 15:00:00 1,7 1,7 - - 2 1 ENE 1027,9 0,1 0 0,0
23.01.2017 14:00:00 1,3 1,2 - - 39 21 - 1028,1 0,1 0 0,0
23.01.2017 13:00:00 0,6 0,5 - - 2 1 E 1028,8 0,1 0 0,2
23.01.2017 12:00:00 -0,3 -0,3 - - 4 2 NNE 1029,2 0,1 0 0,0
23.01.2017 11:00:00 -1,2 -1,2 - - 4 2 NNE 1029,4 0,1 0 0,0
23.01.2017 10:00:00 -1,9 -2,0 - - 4 2 NNE 1029,3 0,1 0 0,0
23.01.2017 09:00:00 -2,3 -2,4 3,2 5,7 5 3 N 1029,1 0,1 0 0,0
23.01.2017 08:00:00 -2,4 -2,5 - - 4 2 NNE 1028,7 0,1 0 0,0
23.01.2017 07:00:00 -2,4 -2,5 - - 4 2 NNE 1028,6 0,2 0 0,0
23.01.2017 06:00:00 -2,3 -2,4 - - 4 2 NNE 1028,4 0,1 0 0,0
23.01.2017 05:00:00 -2,2 -2,3 - - 4 2 NNE 1028,1 0,1 0 0,0
23.01.2017 04:00:00 -1,9 -2,0 - - 8 4 NNW 1028,0 0,1 0 0,0
23.01.2017 03:00:00 -1,9 -2,0 - - 4 2 W 1028,1 - 0 0,0
23.01.2017 02:00:00 -2,1 -2,2 - - 2 1 W 1028,1 - 0 0,0
23.01.2017 01:00:00 -3,0 -3,3 - - 4 2 W 1028,3 - 0 0,0
23.01.2017 00:00:00 -3,3 -3,6 - - 5 3 W 1028,5 - - 0,0
22.01.2017 23:00:00 -3,3 -3,6 - - 2 1 NNW 1028,3 0,1 0 0,0
22.01.2017 22:00:00 -3,3 -3,7 - - 4 2 NW 1028,0 0,1 0 0,0
22.01.2017 21:00:00 -2,1 -2,4 - - 4 2 N 1027,9 0,4 0 0,0
22.01.2017 20:00:00 -2,0 -2,3 - - 4 2 E 1027,5 0,7 0 0,0
22.01.2017 19:00:00 -1,9 -2,8 - - 5 3 ENE 1027,3 3,0 0 0,0
22.01.2017 18:00:00 0,3 -0,6 - - 5 3 E 1026,8 6 0 0,0
22.01.2017 17:00:00 3,6 0,1 - - 5 3 E 1026,3 9 30 0,0
22.01.2017 16:00:00 7,4 3,0 - - 9 5 SE 1026,0 12 60 0,0
22.01.2017 15:00:00 8,1 2,9 - - 11 6 SSE 1025,9 10 42 0,0
22.01.2017 14:00:00 7,5 4,2 - - 8 4 SE 1026,1 7 0 0,0
22.01.2017 13:00:00 7,2 3,6 - - 11 6 SE 1026,3 5 42 0,0
22.01.2017 12:00:00 6,2 2,8 - - 5 3 ESE 1026,6 5 54 0,0
22.01.2017 11:00:00 4,0 2,5 - - 5 3 E 1027,0 4,5 60 0,0
22.01.2017 10:00:00 -0,4 -0,6 - - 2 1 NE 1026,9 3,0 54 0,0
22.01.2017 09:00:00 -3,9 -4,2 3,4 6,0 4 2 N 1026,4 2,0 0 0,0
22.01.2017 08:00:00 -2,8 -3,3 - - 2 1 NNW 1025,6 2,0 0 0,0
22.01.2017 07:00:00 -1,8 -2,2 - - 5 3 ENE 1025,3 3,0 0 0,0
22.01.2017 06:00:00 -0,9 -1,5 - - 5 3 ENE 1025,3 4,6 0 0,0
22.01.2017 05:00:00 -1,2 -1,6 - - 5 3 ENE 1025,4 3,9 0 0,0
22.01.2017 04:00:00 -2,6 -3,1 - - 5 3 E 1025,7 3,9 0 0,0
22.01.2017 03:00:00 -3,5 -4,4 - - 5 3 NE 1025,7 4,2 0 0,0
22.01.2017 02:00:00 -2,9 -4,3 - - 5 3 ENE 1025,9 3,7 0 0,0
22.01.2017 01:00:00 0,4 -1,2 - - 11 6 E 1025,7 9 0 0,0
22.01.2017 00:00:00 0,2 -1,8 - - 9 5 E 1025,7 10 - 0,0
21.01.2017 23:00:00 1,4 -1,6 - - 4 2 E 1026,0 10 0 0,0
21.01.2017 22:00:00 1,2 -1,4 - - 9 5 E 1025,7 10 0 0,0
21.01.2017 21:00:00 0,8 -1,8 - - 9 5 ENE 1025,8 10 0 0,0
21.01.2017 20:00:00 1,0 -1,7 - - 9 5 ENE 1025,8 11 0 0,0
21.01.2017 19:00:00 1,4 -1,8 - - 11 6 ENE 1025,4 10 0 0,0
21.01.2017 18:00:00 1,7 -1,8 - - 13 7 ENE 1025,2 10 0 0,0
21.01.2017 17:00:00 2,1 -2,0 - - 13 7 E 1025,2 10 0 0,0
21.01.2017 16:00:00 2,5 -2,3 - - 11 6 E 1025,2 10 0 0,0
21.01.2017 15:00:00 2,8 -2,5 - - 15 8 E 1025,2 10 0 0,0
21.01.2017 14:00:00 2,8 -2,6 - - 11 6 E 1025,5 10 0 0,0
21.01.2017 13:00:00 3,0 -2,2 - - 15 8 E 1025,8 10 6 0,0
21.01.2017 12:00:00 3,1 -1,2 - - 13 7 E 1026,6 10 48 0,0
21.01.2017 11:00:00 1,5 -1,9 - - 15 8 ENE 1027,1 10 54 0,0
21.01.2017 10:00:00 -0,7 -2,3 - - 5 3 NE 1027,5 10 54 0,0
21.01.2017 09:00:00 -5,9 -6,6 3,7 6,2 2 1 - 1027,7 10 0 0,0
21.01.2017 08:00:00 -6,2 -6,7 - - 5 3 N 1027,6 10 0 0,0
21.01.2017 07:00:00 -6,9 -7,8 - - 4 2 NW 1027,7 10 0 0,0
21.01.2017 06:00:00 -6,1 -6,9 - - 5 3 NNW 1027,9 10 0 0,0
21.01.2017 05:00:00 -5,5 -6,3 - - 4 2 NNW 1028,3 11 0 0,0
21.01.2017 04:00:00 -3,8 -4,7 - - 2 1 NW 1028,6 17 0 0,0
21.01.2017 03:00:00 -3,0 -4,5 - - 13 7 ENE 1029,0 16 0 0,0
21.01.2017 02:00:00 -2,7 -4,4 - - 13 7 ENE 1029,3 17 0 0,0
21.01.2017 01:00:00 -3,0 -5,0 - - 11 6 NE 1029,5 18 0 0,0
21.01.2017 00:00:00 -2,6 -4,8 - - 13 7 NE 1029,9 10 - 0,0
20.01.2017 23:00:00 -1,4 -3,8 - - 5 3 ENE 1029,9 10 0 0,0
20.01.2017 22:00:00 -1,4 -4,6 - - 5 3 NE 1029,9 10 0 0,0
20.01.2017 21:00:00 -1,4 -4,1 - - 5 3 NE 1030,1 10 0 0,0
20.01.2017 20:00:00 -2,3 -5,0 - - 2 1 N 1030,2 10 0 0,0
20.01.2017 19:00:00 1,3 -2,8 - - 8 4 ENE 1030,1 10 0 0,0
20.01.2017 18:00:00 1,1 -2,8 - - 11 6 NE 1030,0 10 0 0,0
20.01.2017 17:00:00 2,2 -3,1 - - 11 6 NE 1030,2 10 36 0,0
20.01.2017 16:00:00 4,7 -3,4 - - 13 7 ENE 1030,3 22 60 0,0
20.01.2017 15:00:00 5,7 -3,8 - - 15 8 ENE 1030,6 10 60 0,0
20.01.2017 14:00:00 5,9 -3,4 - - 16 9 ENE 1030,8 10 60 0,0
20.01.2017 13:00:00 5,3 -3,3 - - 16 9 E 1031,5 27 60 0,0
20.01.2017 12:00:00 4,3 -2,5 - - 15 8 E 1032,2 10 60 0,0
20.01.2017 11:00:00 3,2 -3,2 - - 13 7 ENE 1033,1 10 60 0,0
20.01.2017 10:00:00 0,7 -2,3 - - 9 5 NE 1033,4 18 54 0,0
20.01.2017 09:00:00 -2,1 -3,4 4,2 6,7 9 5 NE 1033,5 10 0 0,0
20.01.2017 08:00:00 -3,0 -4,3 - - 9 5 NNE 1033,2 10 0 0,0
20.01.2017 07:00:00 -2,0 -2,7 - - 5 3 NNE 1033,2 14 0 0,0
20.01.2017 06:00:00 -3,5 -4,5 - - 11 6 NNE 1033,3 10 0 0,0
20.01.2017 05:00:00 -2,6 -3,7 - - 11 6 NE 1033,6 10 0 0,0
20.01.2017 04:00:00 -2,3 -3,4 - - 13 7 NE 1033,7 12 0 0,0
20.01.2017 03:00:00 -2,4 -3,4 - - 11 6 N 1034,1 15 0 0,0
20.01.2017 02:00:00 -2,2 -3,3 - - 5 3 NNE 1034,3 18 0 0,0
20.01.2017 01:00:00 -3,8 -5,5 - - 5 3 WNW 1034,5 17 0 0,0
20.01.2017 00:00:00 -2,0 -4,6 - - 8 4 N 1034,6 18 - 0,0
19.01.2017 23:00:00 -0,7 -3,4 - - 13 7 N 1034,8 10 0 0,0
19.01.2017 22:00:00 -0,2 -3,4 - - 5 3 N 1034,8 10 0 0,0
19.01.2017 21:00:00 0,5 -2,7 - - 8 4 NNE 1034,9 10 0 0,0
19.01.2017 20:00:00 1,1 -2,9 - - 15 8 NE 1034,8 19 0 0,0
19.01.2017 19:00:00 0,4 -3,1 - - 5 3 NE 1035,0 10 0 0,0
19.01.2017 18:00:00 1,2 -3,0 - - 5 3 NE 1034,8 10 0 0,0
19.01.2017 17:00:00 3,5 -2,5 - - 11 6 NE 1034,8 14 30 0,0
19.01.2017 16:00:00 5,6 -3,1 - - 13 7 NE 1034,9 18 60 0,0
19.01.2017 15:00:00 6,8 -3,1 - - 11 6 ENE 1035,1 10 60 0,0
19.01.2017 14:00:00 6,7 -3,0 - - 15 8 ENE 1035,4 22 60 0,0
19.01.2017 13:00:00 6,0 -2,1 - - 16 9 ENE 1035,9 20 60 0,0
19.01.2017 12:00:00 5,2 -2,1 - - 11 6 ENE 1036,5 10 60 0,0
19.01.2017 11:00:00 3,2 -0,4 - - 13 7 NE 1036,9 14 42 0,0
19.01.2017 10:00:00 0,7 -1,3 - - 8 4 NNE 1037,3 10 0 0,0
19.01.2017 09:00:00 -0,5 -2,2 5,0 6,9 13 7 NNE 1037,0 11 0 0,0
19.01.2017 08:00:00 -2,9 -3,9 - - 8 4 N 1037,0 10 0 0,0
19.01.2017 07:00:00 -4,1 -4,8 - - 8 4 N 1036,7 9 0 0,0
19.01.2017 06:00:00 -4,9 -6,1 - - 5 3 NW 1036,6 11 0 0,0
19.01.2017 05:00:00 -3,3 -4,3 - - 5 3 NNW 1036,9 12 0 0,0
19.01.2017 04:00:00 -3,6 -5,0 - - 4 2 NW 1037,2 15 0 0,0
19.01.2017 03:00:00 -2,2 -4,2 - - 8 4 N 1037,5 16 0 0,0
19.01.2017 02:00:00 -1,5 -4,1 - - 8 4 NNE 1037,5 18 0 0,0
19.01.2017 01:00:00 -0,5 -3,4 - - 9 5 NNE 1037,4 20 0 0,0

tt = temperature
td = dewpoint
tt -20cm = temperature -20cm
tt -100cm = temperature -100cm
ff = wind speed
dd = wind direction
ppp = reduced air pressure
vv = visibility
sd = sunshine duration
rr = precipitation

Next stations